Weather History for KCBF - October, 2012

Change the Weather History Date:

Monday, October 1, 2012

  Actual Average (KOMA) Record (KOMA)
Temperature  
Mean Temperature 62 °F 59 °F  
Max Temperature 75 °F 71 °F 94 °F (1976)
Min Temperature 48 °F 47 °F 29 °F (1974)
Degree Days  
Heating Degree Days 4 7  
Month to date heating degree days 7  
Since 1 July heating degree days 110  
Cooling Degree Days 0 1  
Month to date cooling degree days 1  
Year to date cooling degree days 1098  
Growing Degree Days 12 (Base 50)    
Moisture  
Dew Point 42 °F    
Average Humidity 48    
Maximum Humidity 82    
Minimum Humidity 27    
Precipitation  
Precipitation 0.00 in 0.08 in 1.86 in (1950)
Month to date precipitation 0.08  
Year to date precipitation 25.87  
Snow  
Snow 0.00 in 0.00 in - ()
Month to date snowfall 0.0  
Since 1 July snowfall 0.0  
Snow Depth -    
Sea Level Pressure  
Sea Level Pressure 29.93 in    
Wind  
Wind Speed 8 mph (NNW)    
Max Wind Speed 21 mph    
Max Gust Speed 30 mph    
Visibility 10 miles    
Events      
T = Trace of Precipitation, MM = Missing Value Source: NWS Daily Summary

Daily Weather History Graph

Daily Weather History Graph

Search for Another Location

Airport or City:

Trip Planner

Search our weather history database for the weather conditions in past years. The results will help you decide how hot, cold, wet, or windy it might be!

Date:

Astronomy

Oct. 01, 2012 Rise Set
Actual Time 7:20 AM CDT 7:04 PM CDT
Civil Twilight 6:52 AM CDT 7:31 PM CDT
Nautical Twilight 6:20 AM CDT 8:03 PM CDT
Astronomical Twilight 5:48 AM CDT 8:35 PM CDT
Moon 7:39 PM CDT (10/1) 8:52 AM CDT (10/1)
Length of Visible Light 12h 38m
Length of Day
11h 43m
Full, 98% of the Moon is Illuminated
Oct 1
Full
Oct 8
Last Quarter
Oct 15
New
Oct 21
First Quarter
Oct 29
Full

Hourly Weather History & Observations

Time (CDT) Temp. Dew Point Humidity Pressure Visibility Wind Dir Wind Speed Gust Speed Precip Events Conditions
12:15 AM 64.4 °F 42.8 °F 45% 29.91 in 10.0 mi North 3.5 mph - N/A   Unknown
12:35 AM 62.6 °F 44.6 °F 52% 29.91 in 10.0 mi North 4.6 mph - N/A   Unknown
1:15 AM 60.8 °F 44.6 °F 55% 29.90 in 10.0 mi North 3.5 mph - N/A   Unknown
1:35 AM 57.2 °F 44.6 °F 63% 29.90 in 10.0 mi NNW 5.8 mph - N/A   Unknown
1:55 AM 59.0 °F 44.6 °F 59% 29.90 in 10.0 mi NNW 5.8 mph - N/A   Unknown
2:35 AM 60.8 °F 42.8 °F 52% 29.90 in 10.0 mi NNW 5.8 mph - N/A   Unknown
2:55 AM 60.8 °F 41.0 °F 48% 29.90 in 10.0 mi NNW 4.6 mph - N/A   Unknown
3:15 AM 59.0 °F 42.8 °F 55% 29.89 in 10.0 mi NNW 4.6 mph - N/A   Partly Cloudy
3:35 AM 59.0 °F 41.0 °F 51% 29.89 in 10.0 mi NW 4.6 mph - N/A   Scattered Clouds
3:55 AM 57.2 °F 42.8 °F 59% 29.89 in 10.0 mi NW 3.5 mph - N/A   Unknown
4:15 AM 59.0 °F 42.8 °F 55% 29.89 in 10.0 mi NW 4.6 mph - N/A   Unknown
4:35 AM 59.0 °F 42.8 °F 55% 29.89 in 10.0 mi NW 4.6 mph - N/A   Unknown
4:55 AM 53.6 °F 42.8 °F 67% 29.90 in 10.0 mi Calm Calm - N/A   Unknown
5:15 AM 53.6 °F 44.6 °F 72% 29.90 in 10.0 mi Calm Calm - N/A   Unknown
5:35 AM 55.4 °F 42.8 °F 63% 29.90 in 10.0 mi Calm Calm - N/A   Unknown
5:55 AM 53.6 °F 42.8 °F 67% 29.89 in 10.0 mi Calm Calm - N/A   Unknown
6:15 AM 53.6 °F 42.8 °F 67% 29.89 in 10.0 mi Calm Calm - N/A   Unknown
6:35 AM 55.4 °F 42.8 °F 63% 29.89 in 10.0 mi NNE 3.5 mph - N/A   Unknown
6:55 AM 57.2 °F 42.8 °F 59% 29.89 in 10.0 mi North 4.6 mph - N/A   Unknown
7:15 AM 50.0 °F 42.8 °F 76% 29.90 in 10.0 mi NW 5.8 mph - N/A   Clear
7:35 AM 48.2 °F 42.8 °F 82% 29.90 in 9.0 mi North 6.9 mph - N/A   Clear
8:15 AM 51.8 °F 42.8 °F 71% 29.92 in 9.0 mi NNW 9.2 mph - N/A   Clear
8:35 AM 53.6 °F 42.8 °F 67% 29.92 in 10.0 mi NNW 9.2 mph - N/A   Clear
9:15 AM 55.4 °F 44.6 °F 67% 29.93 in 10.0 mi NNW 11.5 mph - N/A   Clear
9:35 AM 57.2 °F 42.8 °F 59% 29.94 in 10.0 mi NNW 12.7 mph 19.6 mph N/A   Clear
9:55 AM 59.0 °F 44.6 °F 59% 29.95 in 10.0 mi NNW 12.7 mph 21.9 mph N/A   Clear
10:15 AM 60.8 °F 44.6 °F 55% 29.96 in 10.0 mi NNW 13.8 mph 19.6 mph N/A   Clear
10:35 AM 62.6 °F 46.4 °F 55% 29.95 in 9.0 mi North 16.1 mph 23.0 mph N/A   Clear
10:55 AM 66.2 °F 46.4 °F 49% 29.96 in 10.0 mi North 13.8 mph 19.6 mph N/A   Clear
11:15 AM 68.0 °F 46.4 °F 46% 29.96 in 10.0 mi North 16.1 mph 23.0 mph N/A   Clear
11:35 AM 69.8 °F 48.2 °F 46% 29.95 in 10.0 mi North 16.1 mph 24.2 mph N/A   Clear
12:15 PM 73.4 °F 48.2 °F 41% 29.95 in 10.0 mi NNW 15.0 mph 25.3 mph N/A   Clear
12:35 PM 73.4 °F 48.2 °F 41% 29.94 in 10.0 mi NNW 16.1 mph 26.5 mph N/A   Clear
12:55 PM 73.4 °F 48.2 °F 41% 29.94 in 10.0 mi North 17.3 mph 26.5 mph N/A   Partly Cloudy
1:15 PM 73.4 °F 48.2 °F 41% 29.94 in 10.0 mi North 13.8 mph 25.3 mph N/A   Scattered Clouds
1:35 PM 73.4 °F 48.2 °F 41% 29.93 in 10.0 mi NNW 17.3 mph 28.8 mph N/A   Partly Cloudy
1:55 PM 73.4 °F 46.4 °F 38% 29.93 in 10.0 mi North 18.4 mph 28.8 mph N/A   Scattered Clouds
2:15 PM 75.2 °F 46.4 °F 36% 29.92 in 10.0 mi North 17.3 mph 29.9 mph N/A   Mostly Cloudy
2:55 PM 73.4 °F 39.2 °F 29% 29.93 in 10.0 mi North 19.6 mph 26.5 mph N/A   Scattered Clouds
3:15 PM 75.2 °F 39.2 °F 27% 29.93 in 10.0 mi North 12.7 mph 26.5 mph N/A   Scattered Clouds
3:35 PM 73.4 °F 39.2 °F 29% 29.93 in 10.0 mi NNW 18.4 mph 28.8 mph N/A   Partly Cloudy
3:55 PM 73.4 °F 41.0 °F 31% 29.92 in 10.0 mi North 20.7 mph 27.6 mph N/A   Clear
4:15 PM 73.4 °F 41.0 °F 31% 29.93 in 10.0 mi NNW 15.0 mph 29.9 mph N/A   Partly Cloudy
4:35 PM 73.4 °F 39.2 °F 29% 29.93 in 10.0 mi NNW 18.4 mph 26.5 mph N/A   Clear
4:55 PM 71.6 °F 39.2 °F 31% 29.93 in 10.0 mi NNW 16.1 mph 26.5 mph N/A   Clear
5:15 PM 71.6 °F 39.2 °F 31% 29.93 in 10.0 mi North 16.1 mph 27.6 mph N/A   Clear
5:35 PM 71.6 °F 39.2 °F 31% 29.93 in 10.0 mi NNW 20.7 mph 29.9 mph N/A   Clear
5:55 PM 69.8 °F 39.2 °F 33% 29.94 in 10.0 mi NNW 16.1 mph 25.3 mph N/A   Clear
6:15 PM 69.8 °F 39.2 °F 33% 29.94 in 10.0 mi North 16.1 mph - N/A   Clear
6:35 PM 68.0 °F 39.2 °F 35% 29.94 in 10.0 mi North 12.7 mph 18.4 mph N/A   Clear
6:55 PM 68.0 °F 39.2 °F 35% 29.94 in 10.0 mi North 10.4 mph - N/A   Clear
7:15 PM 66.2 °F 39.2 °F 37% 29.95 in 10.0 mi NNW 8.1 mph - N/A   Clear
7:35 PM 64.4 °F 39.2 °F 40% 29.95 in 10.0 mi North 8.1 mph - N/A   Unknown
7:55 PM 62.6 °F 39.2 °F 42% 29.95 in 10.0 mi North 9.2 mph - N/A   Unknown
8:15 PM 62.6 °F 39.2 °F 42% 29.96 in 10.0 mi North 8.1 mph - N/A   Unknown
8:35 PM 62.6 °F 39.2 °F 42% 29.96 in 10.0 mi North 6.9 mph - N/A   Partly Cloudy
8:55 PM 62.6 °F 39.2 °F 42% 29.96 in 10.0 mi North 9.2 mph - N/A   Unknown
9:15 PM 60.8 °F 39.2 °F 45% 29.97 in 10.0 mi North 9.2 mph - N/A   Unknown
9:35 PM 60.8 °F 39.2 °F 45% 29.97 in 10.0 mi North 9.2 mph - N/A   Clear
9:55 PM 60.8 °F 37.4 °F 42% 29.97 in 10.0 mi North 10.4 mph - N/A   Clear
10:15 PM 59.0 °F 37.4 °F 45% 29.98 in 10.0 mi North 9.2 mph - N/A   Unknown
10:35 PM 59.0 °F 37.4 °F 45% 29.98 in 10.0 mi North 9.2 mph - N/A   Unknown
10:55 PM 57.2 °F 37.4 °F 48% 29.98 in 10.0 mi North 9.2 mph - N/A   Unknown
11:15 PM 57.2 °F 35.6 °F 44% 29.98 in 10.0 mi North 8.1 mph - N/A   Unknown
11:35 PM 57.2 °F 35.6 °F 44% 29.98 in 10.0 mi North 8.1 mph - N/A   Clear
11:55 PM 53.6 °F 35.6 °F 51% 29.98 in 10.0 mi NNW 6.9 mph - N/A   Clear